Regional Weather Roundup
Issued by NWS

Home | Current Version | Previous Version | Text Only | Print | Product List | Glossary Off
Versions: 1 2 3 4 5 6 7 8 9 10 11 12 13 14 15 16 17 18 19 20 21 22 23 24 25 26 27 28 29 30 31 32 33 34 35 36 37 38 39 40 41 42 43 44 45 46 47 48 49 50

000
ASUS45 KABQ 311101
RWRNM
NEW MEXICO REGIONAL WEATHER ROUNDUP
NATIONAL WEATHER SERVICE ALBUQUERQUE NM
500 AM MDT MON AUG 31 2015

NOTE: "FAIR" MEANS FEW OR NO CLOUDS BELOW 12,000 FEET AGL WITH NO
       SIGNIFICANT WEATHER OR OBSTRUCTIONS TO VISION.

      THIS PRODUCT IS RELEASED AS TWO VERSIONS.  ONE VERSION NEAR
      THE TOP OF THE HOUR CONTAINING PRELIMINARY DATA FROM ALBUQUERQUE
      AND OTHER STATIONS.  A FINAL VERSION WITH ADDITIONAL DATA IS
      ISSUED ABOUT 10 MINUTES AFTER THE HOUR.

NMZ501-503-504-510>518-311200-
NORTHWEST PLATEAU/NORTHCENTRAL MOUNTAINS

CITY           SKY/WX    TMP DP  RH WIND       PRES   REMARKS
FARMINGTON     CLEAR     63  52  67 S3        30.17R
SANTA FE       CLEAR     59  46  62 W3        30.18S
TAOS           CLEAR     50  34  53 N5        30.27S

$$
NMZ402-403-502-505>509-311200-
WESTCENTRAL MOUNTAINS/SOUTHWEST MOUNTAINS

CITY           SKY/WX    TMP DP  RH WIND       PRES   REMARKS
GALLUP         MOCLDY    53  51  93 E5        30.24F
SILVER CITY      N/A     63  54  72 N8        30.18S

$$
NMZ407-409-411-412-311200-
SOUTHERN DESERTS

CITY           SKY/WX    TMP DP  RH WIND       PRES   REMARKS
DEMING         CLEAR     64  55  72 S3        30.08S
HOLLOMAN AFB   CLEAR     67  50  54 E5        30.05S
ALAMOGORDO     CLEAR     64  50  59 CALM      30.08R
T OR C         CLEAR     69  50  50 W9        30.10S

$$
NMZ519>523-311200-
CENTRAL VALLEYS/CENTRAL HIGHLANDS

CITY           SKY/WX    TMP DP  RH WIND       PRES   REMARKS
ALBUQUERQUE    PTCLDY    69  49  48 S3        30.15R
DOUBLE EAGLE   PTCLDY    63  50  63 W12       30.18R
MORIARTY ARPT  FAIR      52  46  79 CALM      30.20S
CLINES CORNERS CLEAR     56  46  69 W10       30.23R
BELEN          FAIR      62  47  57 NW5       30.14S
SOCORRO        NOT AVBL

$$
NMZ524>526-539-540-311200-
SOUTHCENTRAL MOUNTAINS

CITY           SKY/WX    TMP DP  RH WIND       PRES   REMARKS
RUIDOSO        NOT AVBL

$$
NMZ527>531-311200-
NORTHEAST HIGHLANDS/NORTHEAST PLAINS

CITY           SKY/WX    TMP DP  RH WIND       PRES   REMARKS
LAS VEGAS      CLEAR     54  43  66 S5        30.21R
RATON          CLEAR     55  47  74 N7        30.14F
CLAYTON        CLEAR     65  48  54 SW12      30.04S

$$
NMZ532>537-311200-
EASTCENTRAL PLAINS

CITY           SKY/WX    TMP DP  RH WIND       PRES   REMARKS
TUCUMCARI      CLEAR     69  50  50 SW9       30.01F
CANNON AFB     CLEAR     63  52  67 W9        30.07F
CLOVIS AIRPORT CLEAR     59  50  72 SW7       30.08S

$$
NMZ028-029-538-311200-
SOUTHEAST PLAINS

CITY           SKY/WX    TMP DP  RH WIND       PRES   REMARKS
ROSWELL        CLEAR     63  52  67 S6        30.04S
ARTESIA        CLEAR     63  52  67 S7        30.05S
CARLSBAD       CLEAR     63  48  58 S7        30.01F


$$



USA.gov is the U.S. government's official web portal to all federal, state and local government web resources and services.